User: anonymous   Login
Location: Binningen
(47.7924°N, 8.7261°E)
Time: 02:25:36
(UTC+00:00)
Language:

Meteor 2-10 - Orbit

View from above orbital plane
View from above orbital plane
View from above satellite
View from above satellite

Ground track
Ground track

The orbit data is extracted from the following two-line orbital elements,

1 14452U 83109A   21208.51701685  .00000042  00000-0  11781-4 0  9991
2 14452  81.1626   0.7713 0090370 346.1090  13.7604 14.26534918962788
Epoch (UTC): 27 July 2021 12:24:30
Eccentricity: 0.0090370
inclination: 81.1626°
perigee height: 738 km
apogee height: 868 km
right ascension of ascending node: 0.7713°
argument of perigee: 346.1090°
revolutions per day: 14.26534918
mean anomaly at epoch: 13.7604°
orbit number at epoch: 96278

The dashed part of the orbit path shows where the satellite is in the earth's shadow,  

DLR